Regional Weather Roundup
Issued by NWS

Home | Current Version | Previous Version | Graphics & Text | Print | Product List | Glossary On
Versions: 1 2 3 4 5 6 7 8 9 10 11 12 13 14 15 16 17 18 19 20 21 22 23 24 25 26 27 28 29 30 31 32 33 34 35 36 37 38 39 40 41 42 43 44 45 46 47 48 49 50
000
ASUS45 KABQ 290301
RWRNM
NEW MEXICO REGIONAL WEATHER ROUNDUP
NATIONAL WEATHER SERVICE ALBUQUERQUE NM
900 PM MDT FRI AUG 28 2015

NOTE: "FAIR" MEANS FEW OR NO CLOUDS BELOW 12,000 FEET AGL WITH NO
       SIGNIFICANT WEATHER OR OBSTRUCTIONS TO VISION.

      THIS PRODUCT IS RELEASED AS TWO VERSIONS.  ONE VERSION NEAR
      THE TOP OF THE HOUR CONTAINING PRELIMINARY DATA FROM ALBUQUERQUE
      AND OTHER STATIONS.  A FINAL VERSION WITH ADDITIONAL DATA IS
      ISSUED ABOUT 10 MINUTES AFTER THE HOUR.

NMZ501-503-504-510>518-290400-
NORTHWEST PLATEAU/NORTHCENTRAL MOUNTAINS

CITY           SKY/WX    TMP DP  RH WIND       PRES   REMARKS
FARMINGTON     CLEAR     76  35  22 W6        30.14R
SANTA FE       PTCLDY    70  42  36 S8        30.27R
TAOS           MOCLDY    68  39  34 SE17      30.35R

$$
NMZ402-403-502-505>509-290400-
WESTCENTRAL MOUNTAINS/SOUTHWEST MOUNTAINS

CITY           SKY/WX    TMP DP  RH WIND       PRES   REMARKS
GALLUP         PTCLDY    66  47  50 CALM      30.25R
SILVER CITY      N/A     72  59  64 N7        30.18R

$$
NMZ407-409-411-412-290400-
SOUTHERN DESERTS

CITY           SKY/WX    TMP DP  RH WIND       PRES   REMARKS
DEMING         PTCLDY    82  48  30 E6        30.07R
HOLLOMAN AFB   CLOUDY    78  55  45 E8        30.08R
ALAMOGORDO     CLOUDY    79  50  36 NE6       30.10S
T OR C         MOCLDY    81  51  35 VRB3      30.11R

$$
NMZ519>523-290400-
CENTRAL VALLEYS/CENTRAL HIGHLANDS

CITY           SKY/WX    TMP DP  RH WIND       PRES   REMARKS
ALBUQUERQUE    MOCLDY    76  48  37 E20       30.17R
DOUBLE EAGLE   MOCLDY    72  48  43 SE10      30.22R
MORIARTY ARPT  FAIR      60  51  70 CALM      30.31R
CLINES CORNERS MOCLDY    62  47  57 E10       30.34R
BELEN          FAIR      76  46  35 SE16G22   30.18R
SOCORRO        NOT AVBL

$$
NMZ524>526-539-540-290400-
SOUTHCENTRAL MOUNTAINS

CITY           SKY/WX    TMP DP  RH WIND       PRES   REMARKS
RUIDOSO        NOT AVBL

$$
NMZ527>531-290400-
NORTHEAST HIGHLANDS/NORTHEAST PLAINS

CITY           SKY/WX    TMP DP  RH WIND       PRES   REMARKS
LAS VEGAS      MOCLDY    61  48  62 E9        30.37R
RATON          MOCLDY    64  51  62 W10       30.32R
CLAYTON        CLOUDY    69  59  70 W7        30.21R

$$
NMZ532>537-290400-
EASTCENTRAL PLAINS

CITY           SKY/WX    TMP DP  RH WIND       PRES   REMARKS
TUCUMCARI      CLOUDY    76  59  55 N12       30.15R
CANNON AFB     CLOUDY    76  57  50 S5        30.14R
CLOVIS AIRPORT CLOUDY    73  55  53 S6        30.15R

$$
NMZ028-029-538-290400-
SOUTHEAST PLAINS

CITY           SKY/WX    TMP DP  RH WIND       PRES   REMARKS
ROSWELL        CLOUDY    81  56  42 N15       30.06R
ARTESIA        CLOUDY    81  59  47 E8G21     30.08R
CARLSBAD       NOT AVBL
HOBBS          CLOUDY    73  59  60 E10       30.14R


$$



USA.gov is the U.S. government's official web portal to all federal, state and local government web resources and services.